Location: �perlecques
(50.8057°N, 2.1521°E)
Time: 12:47:25
(UTC+00:00)

ATLAS 5 CENTAUR R/B - Pass Details

Date: 09 April 2020
Orbit: 543 x 1116 km, 63.4° (Epoch: 01 May)

Event Time Altitude Azimuth Distance (km) Brightness Sun altitude
Rises 21:44:06 0° 265° (W) 2,830 5.4 -24.9°
Reaches altitude 10° 21:46:30 10° 278° (W) 1,993 4.7 -25.2°
Maximum altitude 21:50:23 28° 338° (NNW) 1,277 3.8 -25.5°
Drops below altitude 10° 21:54:46 10° 37° (NE) 2,273 4.7 -25.9°
Sets 21:57:42 0° 49° (NE) 3,312 5.4 -26.1°
